星链-37228(STARLINK-37228)

导读

STARLINK-37228(NORAD编号68570)是美国SpaceX公司星链(Starlink)低轨互联网星座中的一颗通信卫星,属于星链卫星互联网部署计划的一部分。该卫星运行在近地轨道,承担天基互联网接入服务,可为全球偏远地区、航空航海等场景提供高速低延迟的宽带连接。作为第二代星链组网卫星序列,它继承了星链批量生产、可自主离轨再入的设计,依托猎鹰九号火箭发射入轨,助力星链完成全球覆盖的星座部署目标,目前正常在轨运行,为星链星座的通信容量提供支撑。

Basic Information
目录编号:
68570
目录名称:
STARLINK-37228
国际标识:
2026-070AE
轨道中心:
EARTH
卫星名称:
星链-37228
卫星全名:
星链-37228(STARLINK-37228)
卫星状态:
在轨 (已飞行69 天)
发射日期:
2026-04-02 UTC
国别 :
美国 (US)
星等 :
--
Orbit Information
数据来源 国际轨道数据 AOE轨道数据
星历时间 2026-06-10T04:23:09+0800
17小时前
查看轨道信息
2026-06-10T07:00:00+0800
14小时前
查看轨道信息
半长轴 6840.755km 6840.572km
偏心率 0.0000843 0.0001908
轨道倾角 53.159° 53.156°
近地点辐角 77.766° 21.833°
升交点赤经 293.898° 293.389°
平近点角 282.343° 220.380°
近地点 462.041km 461.129km
远地点 463.195km 463.741km
周期 93.846分钟 93.842分钟
每日圈数 15.34429 15.344903
Detailed Information
固有亮度:
5
最大亮度:
2.5
卫星平台:
Starlink V1.0
覆盖范围:
全球
运营商:
太空探索技术公司
运营商所在国:
美国
制造商(研发单位):
太空探索技术公司
制造商所在国:
美国
使用方式:
暂无
Satellite Introduction
Starlink 计划是 SpaceX 推出的全球卫星互联网项目,通过发射低轨道卫星,为全球尤其是偏远地区提供高速、低延迟的互联网服务。自 2019 年起,Starlink 已部署数千颗卫星,旨在缩小全球数字鸿沟,推动互联网普及。该项目还为军事、航空等行业提供通信支持,带来广泛经济效益。
2D Orbit Map
3D Orbit Map
Orbit Altitude Analysis Chart
Orbit Inclination Analysis Chart
Orbit Comprehensive Analysis Chart
View Comprehensive Chart